This is the latest recevied weather packets stored in our database for station/object N5JXS. If no packets are shown the sender has not sent any weather packets the latest 10 day(s).
| Time | Temp. | Humidity | Pressure | Rain* | Wind** | Luminosity | Snow |
|---|---|---|---|---|---|---|---|
| 1777909569 | 13.33° C | 36% | 1015.5 hPa | 0 mm | - | 151 W/m² | - |
| 1777909266 | 13.33° C | 36% | 1015.3 hPa | 0 mm | - | 126 W/m² | - |
| 1777908964 | 13.33° C | 36% | 1015.3 hPa | 0 mm | - | 121 W/m² | - |
| 1777908662 | 12.78° C | 36% | 1015.4 hPa | 0 mm | - | 120 W/m² | - |
| 1777908359 | 12.78° C | 36% | 1015.4 hPa | 0 mm | - | 116 W/m² | - |
| 1777908055 | 12.78° C | 35% | 1015.4 hPa | 0 mm | - | 114 W/m² | - |
| 1777907750 | 13.33° C | 35% | 1015.6 hPa | 0 mm | - | 122 W/m² | - |
| 1777907445 | 13.33° C | 35% | 1015.6 hPa | 0 mm | - | 139 W/m² | - |
| 1777907143 | 13.33° C | 35% | 1015.6 hPa | 0 mm | - | 133 W/m² | - |
| 1777906840 | 13.33° C | 35% | 1015.6 hPa | 0 mm | - | 119 W/m² | - |
| 1777906537 | 13.33° C | 34% | 1015.5 hPa | 0 mm | - | 123 W/m² | - |
| 1777906232 | 13.33° C | 34% | 1015.6 hPa | 0 mm | - | 133 W/m² | - |
| 1777905929 | 12.78° C | 34% | 1015.8 hPa | 0 mm | - | 119 W/m² | - |
| 1777905626 | 12.78° C | 35% | 1015.8 hPa | 0 mm | - | 100 W/m² | - |
| 1777905323 | 12.22° C | 36% | 1015.9 hPa | 0 mm | - | 82 W/m² | - |
| 1777905021 | 11.67° C | 37% | 1015.8 hPa | 0 mm | - | 69 W/m² | - |
| 1777904718 | 11.67° C | 37% | 1015.4 hPa | 0 mm | - | 63 W/m² | - |
| 1777904415 | 11.67° C | 37% | 1015.6 hPa | 0 mm | - | 67 W/m² | - |
| 1777904111 | 11.67° C | 36% | 1015.9 hPa | 0 mm | - | 81 W/m² | - |
| 1777903808 | 11.67° C | 37% | 1015.5 hPa | 0 mm | - | 90 W/m² | - |
| 1777903505 | 11.67° C | 37% | 1015.5 hPa | 0 mm | - | 91 W/m² | - |
| 1777903201 | 11.67° C | 36% | 1015.5 hPa | 0 mm | - | 87 W/m² | - |
| 1777902898 | 11.67° C | 35% | 1015.9 hPa | 0 mm | - | 86 W/m² | - |
| 1777902595 | 11.67° C | 35% | 1015.3 hPa | 0 mm | - | 78 W/m² | - |
| 1777902292 | 11.67° C | 36% | 1015.5 hPa | 0 mm | - | 73 W/m² | - |
* Rain latest hour (hover to see other rain measurements)
** Current wind speed in m/s (hover to see current wind gust speed)